Terug naar catalogus

ARIANE 5 R/B

ActiefHEO
NORAD 43274·ROCKET BODY·🇫🇷 France

Gelanceerd Apr 5, 2018 vanaf Guiana Space Centre

Loading…

Volgende Passages (komende 24 uur)

TLE

VersSource: Space-Track

Epoch: Sep 14, 2026, 12:58 UTC

1 43274U 18033D   26257.54030715  .00001665  00000-0  46866-3 0  9993
2 43274   2.8490  28.1942 7015015  74.8125 347.9414  2.61912475 74984

Volg ARIANE 5 R/B in realtime met AllMySat

Download on the App Store